datetime,flow
1993-05-01,38.0
1993-05-02,33.0
1993-05-03,38.0
1993-05-04,71.0
1993-05-05,63.0
1993-05-06,58.0
1993-05-07,61.0
1993-05-08,56.0
1993-05-09,51.0
1993-05-10,55.0
1993-05-11,59.0
1993-05-12,87.0
1993-05-13,92.0
1993-05-14,98.0
1993-05-15,103.0
1993-05-16,103.0
1993-05-17,118.0
1993-05-18,125.0
1993-05-19,132.0
1993-05-20,140.0
1993-05-21,150.0
1993-05-22,160.0
1993-05-23,140.0
1993-05-24,120.0
1993-05-25,110.0
1993-05-26,100.0
1993-05-27,85.0
1993-05-28,65.0
1993-05-29,44.0
1993-05-30,35.0
1993-05-31,39.0
1993-06-01,38.0
1993-06-02,43.0
1993-06-03,47.0
1993-06-04,40.0
1993-06-05,43.0
1993-06-06,42.0
1993-06-07,58.0
1993-06-08,63.0
1993-06-09,53.0
1993-06-10,47.0
1993-06-11,37.0
1993-06-12,24.0
1993-06-13,24.0
1993-06-14,21.0
1993-06-15,27.0
1993-06-16,33.0
1993-06-17,50.0
1993-06-18,54.0
1993-06-19,47.0
1993-06-20,41.0
1993-06-21,36.0
1993-06-22,39.0
1993-06-23,39.0
1993-06-24,35.0
1993-06-25,30.0
1993-06-26,27.0
1993-06-27,22.0
1993-06-28,19.0
1993-06-29,18.0
1993-06-30,26.0
1993-07-01,26.0
1993-07-02,19.0
1993-07-03,13.0
1993-07-04,18.0
1993-07-05,10.0
1993-07-06,8.1
1993-07-07,7.4
1993-07-08,11.0
1993-07-09,8.7
1993-07-10,8.3
1993-07-11,2.3
1993-07-12,3.8
1993-07-13,3.7
1993-07-14,5.5
1993-07-15,7.4
1993-07-16,9.8
1993-07-17,5.6
1993-07-18,6.3
1993-07-19,8.6
1993-07-20,9.1
1993-07-21,7.5
1993-07-22,14.0
1993-07-23,13.0
1993-07-24,16.0
1993-07-25,14.0
1993-07-26,21.0
1993-07-27,19.0
1993-07-28,18.0
1993-07-29,16.0
1993-07-30,17.0
1993-07-31,15.0
1993-08-01,10.0
1993-08-02,6.8
1993-08-03,13.0
1993-08-04,16.0
1993-08-05,17.0
1993-08-06,15.0
1993-08-07,12.0
1993-08-08,16.0
1993-08-09,20.0
1993-08-10,41.0
1993-08-11,48.0
1993-08-12,45.0
1993-08-13,37.0
1993-08-14,29.0
1993-08-15,22.0
1993-08-16,23.0
1993-08-17,21.0
1993-08-18,16.0
1993-08-19,22.0
1993-08-20,22.0
1993-08-21,24.0
1993-08-22,19.0
1993-08-23,14.0
1993-08-24,11.0
1993-08-25,5.5
1993-08-26,7.9
1993-08-27,6.3
1993-08-28,13.0
1993-08-29,18.0
1993-08-30,17.0
1993-08-31,16.0
1993-09-01,14.0
1993-09-02,4.6
1993-09-03,4.1
1993-09-04,2.6
1993-09-05,2.9
1993-09-06,6.8
1993-09-07,8.3
1993-09-08,14.0
1993-09-09,15.0
1993-09-10,16.0
1993-09-11,14.0
1993-09-12,12.0
1993-09-13,7.4
1993-09-14,7.1
1993-09-15,7.9
1993-09-16,8.1
1993-09-17,15.0
1993-09-18,19.0
1993-09-19,15.0
1993-09-20,14.0
1993-09-21,14.0
1993-09-22,9.5
1993-09-23,7.4
1993-09-24,6.0
1993-09-25,6.3
1993-09-26,4.8
1993-09-27,1.9
1993-09-28,2.1
1993-09-29,3.7
1993-09-30,3.2
1993-10-01,3.5
1993-10-02,4.1
1993-10-03,7.1
1993-10-04,6.5
1993-10-05,3.4
1993-10-06,6.5
1993-10-07,16.0
1993-10-08,14.0
1993-10-09,12.0
1993-10-10,10.0
1993-10-11,13.0
1993-10-12,16.0
1993-10-13,16.0
1993-10-14,16.0
1993-10-15,15.0
1993-10-16,13.0
1993-10-17,12.0
1993-10-18,12.0
1993-10-19,8.8
1993-10-20,9.1
1993-10-21,9.4
1993-10-22,9.0
1993-10-23,8.6
1993-10-24,8.4
1993-10-25,8.0
1993-10-26,7.0
1993-10-27,5.6
1993-10-28,5.7
1993-10-29,5.5
1993-10-30,4.3
1993-10-31,5.2
1993-11-01,5.0
1993-11-02,4.8
1993-11-03,4.5
1993-11-04,4.5
1993-11-05,3.9
1993-11-06,3.7
1993-11-07,3.8
1993-11-08,4.3
1993-11-09,4.3
1993-11-10,4.3
1993-11-11,4.7
1993-11-12,5.0
1993-11-13,3.7
1993-11-14,3.5
1993-11-15,3.1
1993-11-16,2.8
1993-11-17,2.7
1993-11-18,2.8
1993-11-19,2.7
1993-11-20,2.5
1993-11-21,2.7
1993-11-22,2.9
1993-11-23,3.9
1993-11-24,2.8
1993-11-25,2.4
1993-11-26,2.7
1993-11-27,3.0
1993-11-28,3.2
1993-11-29,3.4
1993-11-30,3.3
1993-12-01,3.5
1993-12-02,3.4
1993-12-03,3.3
1993-12-04,3.2
1993-12-05,3.1
1993-12-06,3.1
1993-12-07,3.2
1993-12-08,3.4
1993-12-09,3.7
1993-12-10,3.6
1993-12-11,3.4
1993-12-12,3.2
1993-12-13,3.2
1993-12-14,3.3
1993-12-15,3.5
1993-12-16,3.8
1993-12-17,3.3
1993-12-18,3.0
1993-12-19,3.5
1993-12-20,4.0
1993-12-21,3.8
1993-12-22,4.0
1993-12-23,4.2
1993-12-24,4.4
1993-12-25,4.3
1993-12-26,4.5
1993-12-27,4.7
1993-12-28,4.5
1993-12-29,4.4
1993-12-30,4.3
1993-12-31,4.3
1994-01-01,4.6
1994-01-02,4.8
1994-01-03,5.0
1994-01-04,5.2
1994-01-05,5.4
1994-01-06,5.0
1994-01-07,4.6
1994-01-08,4.9
1994-01-09,5.2
1994-01-10,4.9
1994-01-11,4.6
1994-01-12,5.0
1994-01-13,5.0
1994-01-14,4.7
1994-01-15,4.2
1994-01-16,4.9
1994-01-17,4.2
1994-01-18,4.5
1994-01-19,4.8
1994-01-20,4.6
1994-01-21,5.3
1994-01-22,5.3
1994-01-23,5.0
1994-01-24,6.3
1994-01-25,5.6
1994-01-26,5.6
1994-01-27,5.6
1994-01-28,5.4
1994-01-29,5.4
1994-01-30,5.2
1994-01-31,4.2
1994-02-01,4.4
1994-02-02,4.3
1994-02-03,4.6
1994-02-04,4.6
1994-02-05,4.8
1994-02-06,4.8
1994-02-07,5.2
1994-02-08,5.1
1994-02-09,5.0
1994-02-10,5.2
1994-02-11,5.1
1994-02-12,5.0
1994-02-13,5.3
1994-02-14,5.6
1994-02-15,5.4
1994-02-16,5.2
1994-02-17,5.0
1994-02-18,5.2
1994-02-19,5.4
1994-02-20,5.0
1994-02-21,5.2
1994-02-22,5.0
1994-02-23,5.2
1994-02-24,5.4
1994-02-25,5.2
1994-02-26,5.4
1994-02-27,5.3
1994-02-28,5.1
1994-03-01,5.0
1994-03-02,5.3
1994-03-03,5.6
1994-03-04,5.4
1994-03-05,5.4
1994-03-06,5.1
1994-03-07,4.5
1994-03-08,4.3
1994-03-09,4.2
1994-03-10,3.7
1994-03-11,2.8
1994-03-12,3.0
1994-03-13,2.8
1994-03-14,3.0
1994-03-15,3.1
1994-03-16,3.1
1994-03-17,2.9
1994-03-18,3.1
1994-03-19,7.5
1994-03-20,5.1
1994-03-21,2.8
1994-03-22,1.8
1994-03-23,1.7000000000000002
1994-03-24,1.4
1994-03-25,1.7000000000000002
1994-03-26,1.9
1994-03-27,2.7
1994-03-28,3.1
1994-03-29,2.9
1994-03-30,2.6
1994-03-31,2.6
1994-04-01,2.9
1994-04-02,3.1
1994-04-03,3.2
1994-04-04,3.3
1994-04-05,2.4
1994-04-06,2.4
1994-04-07,2.2
1994-04-08,1.8
1994-04-09,3.2
1994-04-10,6.1
1994-04-11,4.9
1994-04-12,3.9
1994-04-13,3.0
1994-04-14,3.1
1994-04-15,1.7000000000000002
1994-04-16,0.29
1994-04-17,1.0
1994-04-18,2.7
1994-04-19,17.0
1994-04-20,15.0
1994-04-21,10.0
1994-04-22,19.0
1994-04-23,45.0
1994-04-24,34.0
1994-04-25,33.0
1994-04-26,33.0
1994-04-27,44.0
1994-04-28,39.0
1994-04-29,34.0
1994-04-30,26.0
1994-05-01,20.0
1994-05-02,23.0
1994-05-03,28.0
1994-05-04,31.0
1994-05-05,25.0
1994-05-06,35.0
1994-05-07,38.0
1994-05-08,39.0
1994-05-09,26.0
1994-05-10,24.0
1994-05-11,26.0
1994-05-12,29.0
1994-05-13,38.0
1994-05-14,42.0
1994-05-15,39.0
1994-05-16,44.0
1994-05-17,40.0
1994-05-18,33.0
1994-05-19,32.0
1994-05-20,31.0
1994-05-21,26.0
1994-05-22,23.0
1994-05-23,22.0
1994-05-24,17.0
1994-05-25,13.0
1994-05-26,14.0
1994-05-27,19.0
1994-05-28,13.0
1994-05-29,7.1
1994-05-30,7.3
1994-05-31,8.5
1994-06-01,10.0
1994-06-02,11.0
1994-06-03,9.9
1994-06-04,8.2
1994-06-05,6.8
1994-06-06,13.0
1994-06-07,10.0
1994-06-08,8.5
1994-06-09,14.0
1994-06-10,11.0
1994-06-11,10.0
1994-06-12,15.0
1994-06-13,13.0
1994-06-14,9.8
1994-06-15,7.5
1994-06-16,5.5
1994-06-17,1.7000000000000002
1994-06-18,1.9
1994-06-19,1.5
1994-06-20,1.4
1994-06-21,3.3
1994-06-22,5.9
1994-06-23,4.0
1994-06-24,2.3
1994-06-25,2.4
1994-06-26,0.6900000000000001
1994-06-27,2.2
1994-06-28,0.66
1994-06-29,0.13
1994-06-30,0.18
1994-07-01,0.17
1994-07-02,0.05
1994-07-03,0.2
1994-07-04,0.91
1994-07-05,0.07
1994-07-06,0.05
1994-07-07,0.06
1994-07-08,0.09
1994-07-09,0.17
1994-07-10,0.08
1994-07-11,0.05
1994-07-12,0.03
1994-07-13,0.03
1994-07-14,0.62
1994-07-15,1.5
1994-07-16,0.38
1994-07-17,2.1
1994-07-18,0.19
1994-07-19,0.04
1994-07-20,0.02
1994-07-21,0.01
1994-07-22,0.01
1994-07-23,0.0
1994-07-24,0.0
1994-07-25,0.0
1994-07-26,0.24
1994-07-27,0.06
1994-07-28,0.03
1994-07-29,0.13
1994-07-30,0.03
1994-07-31,0.0
1994-08-01,0.01
1994-08-02,0.05
1994-08-03,0.05
1994-08-04,0.0
1994-08-05,0.12
1994-08-06,0.07
1994-08-07,0.0
1994-08-08,0.0
1994-08-09,0.13
1994-08-10,0.04
1994-08-11,0.0
1994-08-12,0.03
1994-08-13,0.05
1994-08-14,0.03
1994-08-15,0.44
1994-08-16,1.3
1994-08-17,0.05
1994-08-18,0.05
1994-08-19,3.9
1994-08-20,4.3
1994-08-21,4.0
1994-08-22,9.2
1994-08-23,8.7
1994-08-24,5.2
1994-08-25,0.5
1994-08-26,2.4
1994-08-27,2.8
1994-08-28,2.5
1994-08-29,2.6
1994-08-30,1.6
1994-08-31,0.93
1994-09-01,1.0
1994-09-02,0.67
1994-09-03,0.7000000000000001
1994-09-04,2.0
1994-09-05,0.38
1994-09-06,3.4
1994-09-07,5.7
1994-09-08,8.9
1994-09-09,7.2
1994-09-10,7.1
1994-09-11,6.0
1994-09-12,5.9
1994-09-13,6.6
1994-09-14,0.74
1994-09-15,3.4
1994-09-16,0.54
1994-09-17,0.23
1994-09-18,0.19
1994-09-19,1.7000000000000002
1994-09-20,4.8
1994-09-21,5.3
1994-09-22,5.3
1994-09-23,6.0
1994-09-24,3.9
1994-09-25,0.12
1994-09-26,0.6000000000000001
1994-09-27,0.4
1994-09-28,0.56
1994-09-29,1.9
1994-09-30,2.9
1994-10-01,2.1
1994-10-02,3.1
1994-10-03,4.6
1994-10-04,6.8
1994-10-05,4.2
1994-10-06,5.4
1994-10-07,4.1
1994-10-08,3.4
1994-10-09,3.1
1994-10-10,2.8
1994-10-11,3.0
1994-10-12,1.5
1994-10-13,1.1
1994-10-14,1.5
1994-10-15,4.6
1994-10-16,3.3
1994-10-17,2.9
1994-10-18,3.3
1994-10-19,2.5
1994-10-20,2.4
1994-10-21,2.4
1994-10-22,2.6
1994-10-23,2.6
1994-10-24,2.6
1994-10-25,2.5
1994-10-26,2.3
1994-10-27,2.2
1994-10-28,2.1
1994-10-29,2.1
1994-10-30,2.2
1994-10-31,2.3
1994-11-01,2.4
1994-11-02,2.4
1994-11-03,2.3
1994-11-04,2.1
1994-11-05,2.2
1994-11-06,2.3
1994-11-07,2.0
1994-11-08,2.0
1994-11-09,2.1
1994-11-10,2.1
1994-11-11,2.3
1994-11-12,2.2
1994-11-13,2.4
1994-11-14,2.5
1994-11-15,2.3
1994-11-16,2.3
1994-11-17,2.3
1994-11-18,2.2
1994-11-19,2.0
1994-11-20,2.0
1994-11-21,2.1
1994-11-22,1.8
1994-11-23,1.6
1994-11-24,1.5
1994-11-25,1.8
1994-11-26,1.9
1994-11-27,1.9
1994-11-28,1.8
1994-11-29,1.7000000000000002
1994-11-30,2.1
1994-12-01,2.6
1994-12-02,2.5
1994-12-03,2.6
1994-12-04,3.0
1994-12-05,2.9
1994-12-06,3.5
1994-12-07,3.5
1994-12-08,2.7
1994-12-09,2.1
1994-12-10,1.2
1994-12-11,1.1
1994-12-12,1.0
1994-12-13,1.5
1994-12-14,2.1
1994-12-15,2.2
1994-12-16,2.2
1994-12-17,2.3
1994-12-18,2.3
1994-12-19,2.3
1994-12-20,2.2
1994-12-21,2.0
1994-12-22,2.0
1994-12-23,2.1
1994-12-24,2.2
1994-12-25,2.3
1994-12-26,2.4
1994-12-27,2.3
1994-12-28,2.2
1994-12-29,2.0
1994-12-30,2.4
1994-12-31,2.2
1995-01-01,1.8
1995-01-02,1.6
1995-01-03,1.8
1995-01-04,2.0
1995-01-05,1.9
1995-01-06,2.0
1995-01-07,2.1
1995-01-08,2.3
1995-01-09,2.6
1995-01-10,3.0
1995-01-11,3.5
1995-01-12,3.3
1995-01-13,3.3
1995-01-14,3.2
1995-01-15,4.9
1995-01-16,4.2
1995-01-17,3.5
1995-01-18,3.3
1995-01-19,3.1
1995-01-20,2.5
1995-01-21,1.8
1995-01-22,1.9
1995-01-23,1.9
1995-01-24,2.1
1995-01-25,2.3
1995-01-26,2.4
1995-01-27,2.4
1995-01-28,2.3
1995-01-29,2.0
1995-01-30,2.2
1995-01-31,2.3
1995-02-01,2.9
1995-02-02,3.7
1995-02-03,3.5
1995-02-04,3.0
1995-02-05,3.1
1995-02-06,3.0
1995-02-07,3.0
1995-02-08,3.1
1995-02-09,3.0
1995-02-10,3.6
1995-02-11,3.7
1995-02-12,2.8
1995-02-13,2.7
1995-02-14,4.8
1995-02-15,2.8
1995-02-16,2.6
1995-02-17,2.3
1995-02-18,2.5
1995-02-19,3.9
1995-02-20,3.6
1995-02-21,4.2
1995-02-22,4.3
1995-02-23,4.2
1995-02-24,3.9
1995-02-25,3.2
1995-02-26,3.2
1995-02-27,3.5
1995-02-28,3.4
1995-03-01,3.3
1995-03-02,3.2
1995-03-03,3.4
1995-03-04,3.8
1995-03-05,3.3
1995-03-06,3.0
1995-03-07,1.8
1995-03-08,1.4
1995-03-09,1.3
1995-03-10,1.5
1995-03-11,2.4
1995-03-12,3.9
1995-03-13,2.0
1995-03-14,2.1
1995-03-15,2.2
1995-03-16,2.3
1995-03-17,2.3
1995-03-18,2.4
1995-03-19,2.7
1995-03-20,2.7
1995-03-21,2.5
1995-03-22,2.6
1995-03-23,2.5
1995-03-24,2.5
1995-03-25,2.5
1995-03-26,2.3
1995-03-27,2.3
1995-03-28,2.3
1995-03-29,2.3
1995-03-30,3.1
1995-03-31,3.4
1995-04-01,3.2
1995-04-02,3.1
1995-04-03,2.3
1995-04-04,4.7
1995-04-05,3.1
1995-04-06,2.5
1995-04-07,3.7
1995-04-08,12.0
1995-04-09,16.0
1995-04-10,16.0
1995-04-11,16.0
1995-04-12,13.0
1995-04-13,8.7
1995-04-14,11.0
1995-04-15,12.0
1995-04-16,14.0
1995-04-17,20.0
1995-04-18,17.0
1995-04-19,19.0
1995-04-20,26.0
1995-04-21,31.0
1995-04-22,28.0
1995-04-23,20.0
1995-04-24,12.0
1995-04-25,15.0
1995-04-26,20.0
1995-04-27,18.0
1995-04-28,16.0
1995-04-29,16.0
1995-04-30,21.0
1995-05-01,22.0
1995-05-02,32.0
1995-05-03,35.0
1995-05-04,35.0
1995-05-05,39.0
1995-05-06,44.0
1995-05-07,42.0
1995-05-08,41.0
1995-05-09,40.0
1995-05-10,43.0
1995-05-11,58.0
1995-05-12,66.0
1995-05-13,52.0
1995-05-14,54.0
1995-05-15,50.0
1995-05-16,63.0
1995-05-17,59.0
1995-05-18,70.0
1995-05-19,94.0
1995-05-20,103.0
1995-05-21,107.0
1995-05-22,120.0
1995-05-23,203.0
1995-05-24,178.0
1995-05-25,132.0
1995-05-26,126.0
1995-05-27,140.0
1995-05-28,136.0
1995-05-29,110.0
1995-05-30,119.0
1995-05-31,130.0
1995-06-01,129.0
1995-06-02,191.0
1995-06-03,201.0
1995-06-04,195.0
1995-06-05,194.0
1995-06-06,244.0
1995-06-07,160.0
1995-06-08,130.0
1995-06-09,109.0
1995-06-10,86.0
1995-06-11,75.0
1995-06-12,97.0
1995-06-13,144.0
1995-06-14,148.0
1995-06-15,164.0
1995-06-16,152.0
1995-06-17,114.0
1995-06-18,109.0
1995-06-19,98.0
1995-06-20,89.0
1995-06-21,83.0
1995-06-22,66.0
1995-06-23,71.0
1995-06-24,52.0
1995-06-25,55.0
1995-06-26,49.0
1995-06-27,30.0
1995-06-28,22.0
1995-06-29,19.0
1995-06-30,15.0
1995-07-01,18.0
1995-07-02,15.0
1995-07-03,23.0
1995-07-04,27.0
1995-07-05,23.0
1995-07-06,17.0
1995-07-07,11.0
1995-07-08,16.0
1995-07-09,14.0
1995-07-10,19.0
1995-07-11,16.0
1995-07-12,5.6
1995-07-13,5.7
1995-07-14,21.0
1995-07-15,21.0
1995-07-16,28.0
1995-07-17,25.0
1995-07-18,15.0
1995-07-19,20.0
1995-07-20,22.0
1995-07-21,21.0
1995-07-22,14.0
1995-07-23,23.0
1995-07-24,24.0
1995-07-25,13.0
1995-07-26,2.8
1995-07-27,2.7
1995-07-28,2.3
1995-07-29,4.7
1995-07-30,14.0
1995-07-31,12.0
1995-08-01,14.0
1995-08-02,7.4
1995-08-03,12.0
1995-08-04,9.5
1995-08-05,7.0
1995-08-06,9.1
1995-08-07,6.8
1995-08-08,4.7
1995-08-09,12.0
1995-08-10,19.0
1995-08-11,13.0
1995-08-12,4.2
1995-08-13,12.0
1995-08-14,8.9
1995-08-15,7.6
1995-08-16,8.2
1995-08-17,9.5
1995-08-18,9.5
1995-08-19,12.0
1995-08-20,7.5
1995-08-21,13.0
1995-08-22,6.2
1995-08-23,14.0
1995-08-24,15.0
1995-08-25,10.0
1995-08-26,10.0
1995-08-27,8.0
1995-08-28,9.3
1995-08-29,9.2
1995-08-30,11.0
1995-08-31,17.0
1995-09-01,15.0
1995-09-02,5.5
1995-09-03,7.8
1995-09-04,6.2
1995-09-05,5.9
1995-09-06,3.7
1995-09-07,2.2
1995-09-08,9.2
1995-09-09,7.3
1995-09-10,13.0
1995-09-11,7.9
1995-09-12,4.7
1995-09-13,8.7
1995-09-14,6.0
1995-09-15,4.1
1995-09-16,5.2
1995-09-17,5.3
1995-09-18,6.6
1995-09-19,9.3
1995-09-20,9.5
1995-09-21,7.1
1995-09-22,0.87
1995-09-23,7.3
1995-09-24,6.0
1995-09-25,0.30000000000000004
1995-09-26,1.4
1995-09-27,5.5
1995-09-28,7.2
1995-09-29,11.0
1995-09-30,12.0
1995-10-01,12.0
1995-10-02,9.1
1995-10-03,7.0
1995-10-04,7.3
1995-10-05,7.7
1995-10-06,5.5
1995-10-07,4.6
1995-10-08,4.0
1995-10-09,3.5
1995-10-10,3.1
1995-10-11,2.7
1995-10-12,2.7
1995-10-13,2.4
1995-10-14,1.9
1995-10-15,1.2
1995-10-16,1.4
1995-10-17,2.3
1995-10-18,4.0
1995-10-19,4.0
1995-10-20,4.9
1995-10-21,5.2
1995-10-22,3.6
1995-10-23,3.3
1995-10-24,3.5
1995-10-25,4.1
1995-10-26,4.4
1995-10-27,3.3
1995-10-28,3.6
1995-10-29,3.9
1995-10-30,4.3
1995-10-31,4.2
1995-11-01,4.3
1995-11-02,5.8
1995-11-03,6.3
1995-11-04,6.1
1995-11-05,6.5
1995-11-06,6.6
1995-11-07,5.6
1995-11-08,2.0
1995-11-09,6.4
1995-11-10,5.4
1995-11-11,5.0
1995-11-12,5.2
1995-11-13,3.5
1995-11-14,3.5
1995-11-15,3.5
1995-11-16,3.4
1995-11-17,3.9
1995-11-18,3.9
1995-11-19,4.1
1995-11-20,4.0
1995-11-21,4.2
1995-11-22,4.1
1995-11-23,3.8
1995-11-24,3.9
1995-11-25,4.2
1995-11-26,4.5
1995-11-27,4.2
1995-11-28,4.4
1995-11-29,5.0
1995-11-30,5.1
1995-12-01,5.3
1995-12-02,5.3
1995-12-03,5.0
1995-12-04,4.1
1995-12-05,4.2
1995-12-06,4.3
1995-12-07,4.1
1995-12-08,4.2
1995-12-09,4.2
1995-12-10,4.2
1995-12-11,4.3
1995-12-12,5.8
1995-12-13,7.6
1995-12-14,6.3
1995-12-15,6.3
1995-12-16,5.2
1995-12-17,3.9
1995-12-18,3.7
1995-12-19,3.3
1995-12-20,3.4
1995-12-21,3.5
1995-12-22,3.3
1995-12-23,3.0
1995-12-24,3.0
1995-12-25,3.0
1995-12-26,2.9
1995-12-27,2.7
1995-12-28,2.5
1995-12-29,2.7
1995-12-30,2.8
1995-12-31,3.1
1996-01-01,2.6
1996-01-02,2.7
1996-01-03,2.8
1996-01-04,2.5
1996-01-05,2.5
1996-01-06,2.6
1996-01-07,2.6
1996-01-08,2.6
1996-01-09,2.6
1996-01-10,2.5
1996-01-11,2.8
1996-01-12,3.0
1996-01-13,3.2
1996-01-14,3.4
1996-01-15,3.6
1996-01-16,4.6
1996-01-17,6.8
1996-01-18,4.1
1996-01-19,4.5
1996-01-20,4.4
1996-01-21,4.1
1996-01-22,3.9
1996-01-23,3.7
1996-01-24,3.7
1996-01-25,3.4
1996-01-26,3.3
1996-01-27,3.0
1996-01-28,2.9
1996-01-29,2.9
1996-01-30,2.9
1996-01-31,2.9
1996-02-01,2.9
1996-02-02,2.9
1996-02-03,2.9
1996-02-04,2.9
1996-02-05,2.8
1996-02-06,2.7
1996-02-07,2.7
1996-02-08,2.7
1996-02-09,2.8
1996-02-10,2.9
1996-02-11,3.0
1996-02-12,3.2
1996-02-13,2.9
1996-02-14,2.7
1996-02-15,2.8
1996-02-16,3.3
1996-02-17,3.2
1996-02-18,3.4
1996-02-19,3.3
1996-02-20,5.2
1996-02-21,4.5
1996-02-22,4.4
1996-02-23,4.1
1996-02-24,4.0
1996-02-25,3.9
1996-02-26,3.8
1996-02-27,3.7
1996-02-28,2.8
1996-02-29,2.4
1996-03-01,2.0
1996-03-02,1.7000000000000002
1996-03-03,1.6
1996-03-04,1.3
1996-03-05,2.0
1996-03-06,3.3
1996-03-07,2.9
1996-03-08,2.7
1996-03-09,2.0
1996-03-10,2.2
1996-03-11,2.3
1996-03-12,2.6
1996-03-13,3.5
1996-03-14,4.6
1996-03-15,6.4
1996-03-16,6.8
1996-03-17,7.0
1996-03-18,4.6
1996-03-19,4.2
1996-03-20,5.0
1996-03-21,5.7
1996-03-22,5.0
1996-03-23,5.9
1996-03-24,4.6
1996-03-25,4.5
1996-03-26,4.8
1996-03-27,4.6
1996-03-28,4.4
1996-03-29,4.8
1996-03-30,4.9
1996-03-31,5.1
1996-04-01,4.9
1996-04-02,3.9
1996-04-03,3.8
1996-04-04,3.6
1996-04-05,3.5
1996-04-06,3.9
1996-04-07,6.6
1996-04-08,6.6
1996-04-09,10.0
1996-04-10,16.0
1996-04-11,16.0
1996-04-12,16.0
1996-04-13,16.0
1996-04-14,15.0
1996-04-15,9.2
1996-04-16,10.0
1996-04-17,20.0
1996-04-18,24.0
1996-04-19,23.0
1996-04-20,20.0
1996-04-21,28.0
1996-04-22,19.0
1996-04-23,10.0
1996-04-24,16.0
1996-04-25,16.0
1996-04-26,25.0
1996-04-27,36.0
1996-04-28,42.0
1996-04-29,42.0
1996-04-30,37.0
1996-05-01,39.0
1996-05-02,50.0
1996-05-03,73.0
1996-05-04,54.0
1996-05-05,52.0
1996-05-06,74.0
1996-05-07,79.0
1996-05-08,74.0
1996-05-09,75.0
1996-05-10,64.0
1996-05-11,72.0
1996-05-12,84.0
1996-05-13,96.0
1996-05-14,102.0
1996-05-15,106.0
1996-05-16,115.0
1996-05-17,89.0
1996-05-18,80.0
1996-05-19,72.0
1996-05-20,49.0
1996-05-21,43.0
1996-05-22,43.0
1996-05-23,50.0
1996-05-24,45.0
1996-05-25,63.0
1996-05-26,61.0
1996-05-27,59.0
1996-05-28,75.0
1996-05-29,55.0
1996-05-30,52.0
1996-05-31,48.0
1996-06-01,49.0
1996-06-02,39.0
1996-06-03,34.0
1996-06-04,30.0
1996-06-05,34.0
1996-06-06,38.0
1996-06-07,25.0
1996-06-08,19.0
1996-06-09,16.0
1996-06-10,12.0
1996-06-11,13.0
1996-06-12,23.0
1996-06-13,27.0
1996-06-14,30.0
1996-06-15,28.0
1996-06-16,26.0
1996-06-17,26.0
1996-06-18,24.0
1996-06-19,27.0
1996-06-20,23.0
1996-06-21,28.0
1996-06-22,32.0
1996-06-23,30.0
1996-06-24,33.0
1996-06-25,24.0
1996-06-26,21.0
1996-06-27,25.0
1996-06-28,20.0
1996-06-29,16.0
1996-06-30,15.0
1996-07-01,14.0
1996-07-02,8.8
1996-07-03,7.8
1996-07-04,9.7
1996-07-05,11.0
1996-07-06,8.5
1996-07-07,4.6
1996-07-08,3.8
1996-07-09,3.9
1996-07-10,6.4
1996-07-11,2.3
1996-07-12,2.9
1996-07-13,2.4
1996-07-14,4.2
1996-07-15,5.3
1996-07-16,4.1
1996-07-17,4.5
1996-07-18,3.9
1996-07-19,4.1
1996-07-20,7.3
1996-07-21,6.4
1996-07-22,6.2
1996-07-23,6.1
1996-07-24,12.0
1996-07-25,8.6
1996-07-26,6.6
1996-07-27,5.2
1996-07-28,6.9
1996-07-29,6.3
1996-07-30,6.5
1996-07-31,6.7
1996-08-01,7.0
1996-08-02,15.0
1996-08-03,21.0
1996-08-04,20.0
1996-08-05,19.0
1996-08-06,9.4
1996-08-07,8.9
1996-08-08,11.0
1996-08-09,12.0
1996-08-10,8.9
1996-08-11,5.6
1996-08-12,4.7
1996-08-13,6.8
1996-08-14,2.9
1996-08-15,2.6
1996-08-16,1.9
1996-08-17,0.93
1996-08-18,0.67
1996-08-19,2.2
1996-08-20,1.8
1996-08-21,2.5
1996-08-22,1.2
1996-08-23,1.8
1996-08-24,1.6
1996-08-25,1.1
1996-08-26,1.5
1996-08-27,1.7000000000000002
1996-08-28,2.7
1996-08-29,1.1
1996-08-30,0.48
1996-08-31,2.0
1996-09-01,4.7
1996-09-02,1.9
1996-09-03,1.3
1996-09-04,0.86
1996-09-05,0.34
1996-09-06,1.3
1996-09-07,1.8
1996-09-08,5.7
1996-09-09,11.0
1996-09-10,7.9
1996-09-11,12.0
1996-09-12,13.0
1996-09-13,15.0
1996-09-14,13.0
1996-09-15,6.3
1996-09-16,9.9
1996-09-17,11.0
1996-09-18,9.9
1996-09-19,7.2
1996-09-20,7.2
1996-09-21,6.7
1996-09-22,5.2
1996-09-23,4.8
1996-09-24,0.66
1996-09-25,3.8
1996-09-26,4.6
1996-09-27,0.22
1996-09-28,0.08
1996-09-29,0.06
1996-09-30,2.4
1996-10-01,4.3
1996-10-02,4.0
1996-10-03,4.3
1996-10-04,4.2
1996-10-05,4.4
1996-10-06,4.1
1996-10-07,3.9
1996-10-08,3.7
1996-10-09,3.2
1996-10-10,2.9
1996-10-11,3.4
1996-10-12,3.3
1996-10-13,2.7
1996-10-14,2.4
1996-10-15,2.2
1996-10-16,2.0
1996-10-17,1.9
1996-10-18,2.2
1996-10-19,2.6
1996-10-20,2.6
1996-10-21,2.5
1996-10-22,2.3
1996-10-23,2.2
1996-10-24,2.4
1996-10-25,2.9
1996-10-26,2.6
1996-10-27,2.5
1996-10-28,2.4
1996-10-29,2.7
1996-10-30,3.6
1996-10-31,5.0
1996-11-01,5.2
1996-11-02,4.9
1996-11-03,5.0
1996-11-04,5.1
1996-11-05,7.2
1996-11-06,5.8
1996-11-07,5.5
1996-11-08,5.7
1996-11-09,5.6
1996-11-10,5.6
1996-11-11,6.4
1996-11-12,6.4
1996-11-13,6.3
1996-11-14,6.2
1996-11-15,6.4
1996-11-16,5.0
1996-11-17,0.89
1996-11-18,2.5
1996-11-19,4.0
1996-11-20,2.1
1996-11-21,1.6
1996-11-22,9.2
1996-11-23,7.2
1996-11-24,3.8
1996-11-25,3.3
1996-11-26,2.6
1996-11-27,2.3
1996-11-28,2.3
1996-11-29,2.2
1996-11-30,1.9
1996-12-01,1.9
1996-12-02,1.7000000000000002
1996-12-03,1.5
1996-12-04,1.6
1996-12-05,1.6
1996-12-06,1.7000000000000002
1996-12-07,1.7000000000000002
1996-12-08,1.7000000000000002
1996-12-09,1.9
1996-12-10,2.0
1996-12-11,2.2
1996-12-12,2.4
1996-12-13,2.7
1996-12-14,3.0
1996-12-15,3.2
1996-12-16,3.3
1996-12-17,3.2
1996-12-18,3.0
1996-12-19,3.2
1996-12-20,3.3
1996-12-21,3.3
1996-12-22,3.3
1996-12-23,3.3
1996-12-24,3.3
1996-12-25,3.4
1996-12-26,3.3
1996-12-27,3.3
1996-12-28,3.6
1996-12-29,3.6
1996-12-30,3.5
1996-12-31,4.1
1997-01-01,4.8
1997-01-02,5.3
1997-01-03,5.2
1997-01-04,4.8
1997-01-05,4.6
1997-01-06,4.6
1997-01-07,5.0
1997-01-08,4.2
1997-01-09,3.6
1997-01-10,4.0
1997-01-11,4.0
1997-01-12,3.7
1997-01-13,3.4
1997-01-14,3.1
1997-01-15,3.2
1997-01-16,3.4
1997-01-17,3.3
1997-01-18,3.4
1997-01-19,3.5
1997-01-20,3.6
1997-01-21,3.7
1997-01-22,3.7
1997-01-23,3.7
1997-01-24,3.9
1997-01-25,3.7
1997-01-26,3.8
1997-01-27,3.8
1997-01-28,6.4
1997-01-29,6.2
1997-01-30,6.1
1997-01-31,5.6
1997-02-01,5.6
1997-02-02,6.1
1997-02-03,5.5
1997-02-04,5.5
1997-02-05,5.6
1997-02-06,5.4
1997-02-07,5.3
1997-02-08,4.5
1997-02-09,3.0
1997-02-10,2.5
1997-02-11,2.3
1997-02-12,2.2
1997-02-13,2.1
1997-02-14,1.9
1997-02-15,2.1
1997-02-16,4.9
1997-02-17,5.0
1997-02-18,5.4
1997-02-19,5.3
1997-02-20,5.6
1997-02-21,5.6
1997-02-22,5.6
1997-02-23,5.6
1997-02-24,5.9
1997-02-25,5.2
1997-02-26,5.1
1997-02-27,5.7
1997-02-28,5.4
1997-03-01,6.2
1997-03-02,5.4
1997-03-03,5.5
1997-03-04,5.4
1997-03-05,5.5
1997-03-06,5.0
1997-03-07,4.9
1997-03-08,4.3
1997-03-09,2.0
1997-03-10,1.9
1997-03-11,1.9
1997-03-12,2.1
1997-03-13,2.5
1997-03-14,3.0
1997-03-15,2.0
1997-03-16,2.1
1997-03-17,2.3
1997-03-18,2.6
1997-03-19,2.7
1997-03-20,4.3
1997-03-21,11.0
1997-03-22,12.0
1997-03-23,11.0
1997-03-24,12.0
1997-03-25,11.0
1997-03-26,9.2
1997-03-27,7.5
1997-03-28,7.2
1997-03-29,6.9
1997-03-30,6.8
1997-03-31,7.7
1997-04-01,7.9
1997-04-02,7.7
1997-04-03,6.9
1997-04-04,6.9
1997-04-05,7.7
1997-04-06,7.4
1997-04-07,9.1
1997-04-08,14.0
1997-04-09,15.0
1997-04-10,15.0
1997-04-11,15.0
1997-04-12,16.0
1997-04-13,15.0
1997-04-14,15.0
1997-04-15,15.0
1997-04-16,16.0
1997-04-17,15.0
1997-04-18,20.0
1997-04-19,32.0
1997-04-20,42.0
1997-04-21,50.0
1997-04-22,45.0
1997-04-23,52.0
1997-04-24,49.0
1997-04-25,47.0
1997-04-26,57.0
1997-04-27,61.0
1997-04-28,92.0
1997-04-29,111.0
1997-04-30,99.0
1997-05-01,90.0
1997-05-02,68.0
1997-05-03,53.0
1997-05-04,52.0
1997-05-05,63.0
1997-05-06,102.0
1997-05-07,114.0
1997-05-08,125.0
1997-05-09,120.0
1997-05-10,123.0
1997-05-11,132.0
1997-05-12,129.0
1997-05-13,125.0
1997-05-14,127.0
1997-05-15,133.0
1997-05-16,127.0
1997-05-17,137.0
1997-05-18,131.0
1997-05-19,117.0
1997-05-20,106.0
1997-05-21,108.0
1997-05-22,103.0
1997-05-23,89.0
1997-05-24,112.0
1997-05-25,119.0
1997-05-26,97.0
1997-05-27,79.0
1997-05-28,56.0
1997-05-29,53.0
1997-05-30,55.0
1997-05-31,52.0
1997-06-01,55.0
1997-06-02,52.0
1997-06-03,46.0
1997-06-04,54.0
1997-06-05,48.0
1997-06-06,46.0
1997-06-07,44.0
1997-06-08,52.0
1997-06-09,56.0
1997-06-10,58.0
1997-06-11,56.0
1997-06-12,43.0
1997-06-13,51.0
1997-06-14,48.0
1997-06-15,46.0
1997-06-16,47.0
1997-06-17,45.0
1997-06-18,42.0
1997-06-19,42.0
1997-06-20,37.0
1997-06-21,27.0
1997-06-22,20.0
1997-06-23,26.0
1997-06-24,27.0
1997-06-25,27.0
1997-06-26,22.0
1997-06-27,20.0
1997-06-28,14.0
1997-06-29,11.0
1997-06-30,11.0
1997-07-01,8.9
1997-07-02,13.0
1997-07-03,13.0
1997-07-04,10.0
1997-07-05,11.0
1997-07-06,12.0
1997-07-07,9.2
1997-07-08,4.9
1997-07-09,2.8
1997-07-10,4.6
1997-07-11,6.1
1997-07-12,6.6
1997-07-13,6.9
1997-07-14,3.5
1997-07-15,5.1
1997-07-16,2.4
1997-07-17,2.0
1997-07-18,2.7
1997-07-19,2.3